�������l�o���
Date,Time,MP-1(��Sv/h),MP-2(��Sv/h),MP-3(��Sv/h),MP-4(��Sv/h),MP-5(��Sv/h),MP-6(��Sv/h),MP-7(��Sv/h),MP-8(��Sv/h),����,����(m/s),���J
2021/09/25,00:00,0.596,0.890,0.567,1.079,0.774,0.361,0.627,0.588,�k�k��,6.1,��
2021/09/25,00:10,0.594,0.890,0.567,1.078,0.774,0.362,0.627,0.588,�k,5.4,��
2021/09/25,00:20,0.593,0.888,0.566,1.080,0.772,0.362,0.626,0.586,�k,5.5,��
2021/09/25,00:30,0.596,0.890,0.566,1.080,0.774,0.362,0.624,0.587,�k,5.4,��
2021/09/25,00:40,0.595,0.891,0.567,1.079,0.775,0.361,0.626,0.589,�k,6.3,��
2021/09/25,00:50,0.594,0.890,0.565,1.082,0.773,0.361,0.628,0.588,�k,5.6,��
2021/09/25,01:00,0.593,0.892,0.567,1.081,0.776,0.361,0.627,0.589,�k�k��,6.4,��
2021/09/25,01:10,0.595,0.891,0.567,1.079,0.772,0.361,0.626,0.588,�k,6.2,�L
2021/09/25,01:20,0.593,0.890,0.566,1.083,0.775,0.360,0.626,0.589,�k,6.2,�L
2021/09/25,01:30,0.593,0.889,0.567,1.079,0.774,0.361,0.624,0.588,�k,6.9,�L
2021/09/25,01:40,0.592,0.889,0.567,1.080,0.772,0.360,0.625,0.587,�k,7.2,�L
2021/09/25,01:50,0.593,0.889,0.568,1.080,0.774,0.360,0.625,0.587,�k,5.3,�L
2021/09/25,02:00,0.592,0.889,0.566,1.079,0.771,0.362,0.624,0.587,�k,6.3,�L
2021/09/25,02:10,0.590,0.889,0.565,1.079,0.771,0.362,0.623,0.586,�k,8.4,�L
2021/09/25,02:20,0.588,0.889,0.566,1.076,0.770,0.360,0.623,0.583,�k,6.1,�L
2021/09/25,02:30,0.589,0.886,0.564,1.081,0.768,0.362,0.622,0.582,�k,5.7,�L
2021/09/25,02:40,0.585,0.876,0.561,1.076,0.767,0.361,0.622,0.582,�k�k��,6.9,�L
2021/09/25,02:50,0.584,0.874,0.560,1.071,0.764,0.359,0.620,0.583,�k�k��,6.1,�L
2021/09/25,03:00,0.581,0.866,0.558,1.068,0.759,0.359,0.620,0.583,�k�k��,7.0,�L
2021/09/25,03:10,0.580,0.866,0.555,1.062,0.755,0.358,0.620,0.582,�k�k��,5.8,�L
2021/09/25,03:20,0.583,0.864,0.556,1.060,0.755,0.359,0.619,0.581,�k�k��,7.0,�L
2021/09/25,03:30,0.580,0.859,0.555,1.057,0.754,0.359,0.618,0.578,�k��,7.0,�L
2021/09/25,03:40,0.582,0.860,0.554,1.055,0.753,0.360,0.618,0.579,�k��,7.9,�L
2021/09/25,03:50,0.580,0.860,0.556,1.055,0.751,0.359,0.619,0.579,�k��,7.2,�L
2021/09/25,04:00,0.580,0.861,0.555,1.053,0.751,0.359,0.618,0.579,�k��,6.8,��
2021/09/25,04:10,0.578,0.860,0.555,1.052,0.752,0.358,0.618,0.580,�k��,6.5,��
2021/09/25,04:20,0.579,0.858,0.554,1.052,0.751,0.358,0.617,0.578,�k��,6.2,��
2021/09/25,04:30,0.579,0.861,0.555,1.052,0.752,0.359,0.617,0.580,�k��,6.3,�L
2021/09/25,04:40,0.578,0.860,0.553,1.053,0.751,0.356,0.617,0.579,�k��,5.0,�L
2021/09/25,04:50,0.580,0.860,0.554,1.052,0.751,0.359,0.617,0.580,�k��,5.5,�L
2021/09/25,05:00,0.580,0.861,0.554,1.053,0.751,0.359,0.618,0.579,�k��,5.7,�L
2021/09/25,05:10,0.581,0.861,0.554,1.053,0.750,0.357,0.617,0.579,�k��,5.1,�L
2021/09/25,05:20,0.578,0.861,0.555,1.052,0.748,0.357,0.616,0.577,�k��,4.6,�L
2021/09/25,05:30,0.577,0.860,0.553,1.053,0.750,0.358,0.617,0.579,�k��,5.3,�L
2021/09/25,05:40,0.578,0.858,0.551,1.050,0.748,0.357,0.616,0.578,�k��,4.3,�L
2021/09/25,05:50,0.577,0.860,0.551,1.052,0.749,0.358,0.616,0.579,�k��,5.2,�L
2021/09/25,06:00,0.577,0.855,0.551,1.054,0.750,0.358,0.618,0.581,�k��,5.5,�L
2021/09/25,06:10,0.578,0.857,0.552,1.051,0.748,0.357,0.617,0.579,�k��,4.4,�L
2021/09/25,06:20,0.576,0.856,0.551,1.052,0.748,0.357,0.617,0.580,�k��,4.9,�L
2021/09/25,06:30,0.578,0.854,0.550,1.048,0.749,0.355,0.620,0.578,�k��,5.5,�L
2021/09/25,06:40,0.576,0.853,0.553,1.051,0.750,0.356,0.615,0.579,�k��,4.8,�L
2021/09/25,06:50,0.577,0.854,0.551,1.050,0.749,0.356,0.617,0.580,�k��,5.7,�L
2021/09/25,07:00,0.576,0.858,0.552,1.051,0.748,0.355,0.617,0.580,�k��,5.0,�L
2021/09/25,07:10,0.576,0.856,0.549,1.053,0.750,0.354,0.618,0.579,�k�k��,4.7,�L
2021/09/25,07:20,0.576,0.858,0.549,1.049,0.750,0.356,0.617,0.579,�k�k��,4.3,�L
2021/09/25,07:30,0.576,0.859,0.552,1.051,0.748,0.356,0.616,0.581,�k�k��,4.3,�L
2021/09/25,07:40,0.576,0.855,0.552,1.052,0.748,0.356,0.617,0.581,�k�k��,4.2,�L
2021/09/25,07:50,0.577,0.855,0.551,1.052,0.749,0.355,0.619,0.578,�k�k��,4.4,�L
2021/09/25,08:00,0.577,0.856,0.551,1.050,0.749,0.355,0.619,0.578,�k,3.7,��
2021/09/25,08:10,0.577,0.857,0.551,1.049,0.748,0.355,0.619,0.581,�k�k��,2.6,��
2021/09/25,08:20,0.576,0.857,0.552,1.051,0.750,0.355,0.618,0.579,�k,3.4,��
2021/09/25,08:30,0.576,0.855,0.552,1.050,0.749,0.355,0.618,0.578,�k�k��,2.8,��
2021/09/25,08:40,0.575,0.857,0.551,1.049,0.749,0.356,0.619,0.578,�k��,3.7,�L
2021/09/25,08:50,0.574,0.855,0.550,1.050,0.749,0.355,0.619,0.581,���k��,6.9,��
2021/09/25,09:00,0.574,0.856,0.552,1.050,0.748,0.355,0.618,0.580,���k��,6.1,��
2021/09/25,09:10,0.574,0.856,0.551,1.050,0.747,0.355,0.619,0.580,���k��,5.8,��
2021/09/25,09:20,0.576,0.856,0.551,1.051,0.747,0.354,0.619,0.579,�k��,6.0,�L
2021/09/25,09:30,0.575,0.857,0.549,1.051,0.748,0.355,0.618,0.580,�k��,5.1,�L
2021/09/25,09:40,0.577,0.856,0.549,1.052,0.749,0.355,0.620,0.579,���k��,5.5,�L
2021/09/25,09:50,0.576,0.856,0.550,1.054,0.749,0.355,0.620,0.580,���k��,4.7,�L
2021/09/25,10:00,0.576,0.857,0.552,1.053,0.752,0.356,0.620,0.580,���k��,4.7,�L
2021/09/25,10:10,0.575,0.858,0.550,1.051,0.749,0.356,0.619,0.578,��,4.2,�L
2021/09/25,10:20,0.577,0.859,0.552,1.053,0.751,0.357,0.619,0.577,���k��,3.8,�L
2021/09/25,10:30,0.575,0.858,0.550,1.051,0.752,0.356,0.620,0.579,���쓌,3.3,�L
2021/09/25,10:40,0.576,0.859,0.551,1.053,0.753,0.357,0.621,0.578,��,2.0,�L
2021/09/25,10:50,0.578,0.855,0.553,1.054,0.751,0.356,0.618,0.580,��쐼,2.0,�L
2021/09/25,11:00,0.577,0.854,0.555,1.054,0.752,0.357,0.621,0.579,�쐼,2.3,�L
2021/09/25,11:10,0.578,0.854,0.552,1.055,0.750,0.358,0.619,0.578,�쐼,3.4,�L
2021/09/25,11:20,0.577,0.851,0.552,1.055,0.749,0.357,0.619,0.579,�쐼,4.3,�L
2021/09/25,11:30,0.578,0.850,0.551,1.057,0.747,0.358,0.617,0.577,��,2.6,�L
2021/09/25,11:40,0.577,0.851,0.552,1.053,0.746,0.358,0.617,0.578,��,2.6,�L
2021/09/25,11:50,0.578,0.852,0.552,1.053,0.745,0.357,0.615,0.577,��,1.5,�L
2021/09/25,12:00,0.579,0.851,0.554,1.051,0.743,0.358,0.616,0.576,��쐼,2.0,�L
2021/09/25,12:10,0.575,0.851,0.552,1.050,0.746,0.357,0.616,0.579,��쐼,2.0,�L
2021/09/25,12:20,0.576,0.849,0.552,1.050,0.744,0.357,0.616,0.575,�쐼,1.2,�L
2021/09/25,12:30,0.575,0.851,0.551,1.049,0.746,0.356,0.616,0.578,���k��,0.6,�L
2021/09/25,12:40,0.576,0.852,0.551,1.051,0.746,0.356,0.616,0.576,�k��,2.3,�L
2021/09/25,12:50,0.575,0.852,0.550,1.049,0.746,0.356,0.614,0.576,�k��,1.7,�L
2021/09/25,13:00,0.577,0.852,0.549,1.050,0.746,0.356,0.616,0.575,�k�k��,2.0,�L
2021/09/25,13:10,0.575,0.852,0.551,1.049,0.748,0.355,0.615,0.576,�k��,1.4,�L
2021/09/25,13:20,0.575,0.851,0.549,1.051,0.746,0.356,0.616,0.577,�k��,1.5,�L
2021/09/25,13:30,0.576,0.855,0.549,1.050,0.748,0.354,0.614,0.578,�k�k��,2.0,��
2021/09/25,13:40,0.575,0.851,0.547,1.050,0.746,0.354,0.613,0.576,�k�k��,3.3,��
2021/09/25,13:50,0.577,0.852,0.549,1.052,0.747,0.353,0.615,0.576,�k�k��,2.3,�L
2021/09/25,14:00,0.575,0.848,0.549,1.052,0.747,0.353,0.615,0.577,�k,2.0,�L
2021/09/25,14:10,0.574,0.850,0.547,1.048,0.745,0.353,0.614,0.577,�k,1.9,��
2021/09/25,14:20,0.573,0.852,0.548,1.047,0.744,0.353,0.615,0.576,�k�k��,2.3,��
2021/09/25,14:30,0.573,0.851,0.547,1.049,0.744,0.353,0.616,0.576,�k,2.5,�L
2021/09/25,14:40,0.574,0.851,0.548,1.050,0.744,0.352,0.615,0.576,�k,2.5,�L
2021/09/25,14:50,0.574,0.850,0.548,1.050,0.745,0.353,0.617,0.576,�k��,2.6,�L
2021/09/25,15:00,0.574,0.854,0.548,1.049,0.744,0.353,0.616,0.577,���k��,2.3,��
2021/09/25,15:10,0.574,0.851,0.549,1.048,0.745,0.352,0.616,0.577,�k�k��,0.9,��
2021/09/25,15:20,0.574,0.852,0.548,1.053,0.747,0.354,0.617,0.576,��,1.7,�L
2021/09/25,15:30,0.573,0.852,0.548,1.051,0.744,0.353,0.616,0.577,���k��,2.6,��
2021/09/25,15:40,0.573,0.852,0.550,1.051,0.744,0.353,0.616,0.578,���k��,4.0,��
2021/09/25,15:50,0.576,0.852,0.548,1.051,0.745,0.353,0.617,0.577,���k��,2.6,��
2021/09/25,16:00,0.576,0.853,0.550,1.051,0.749,0.354,0.615,0.576,���k��,3.4,��
2021/09/25,16:10,0.574,0.853,0.550,1.050,0.748,0.355,0.616,0.576,���k��,2.5,��
2021/09/25,16:20,0.575,0.853,0.549,1.050,0.747,0.354,0.616,0.577,���k��,3.7,��
2021/09/25,16:30,0.573,0.855,0.549,1.051,0.750,0.355,0.616,0.577,���k��,4.2,��
2021/09/25,16:40,0.574,0.855,0.550,1.051,0.748,0.355,0.617,0.575,���k��,3.0,��
2021/09/25,16:50,0.574,0.856,0.549,1.049,0.748,0.354,0.617,0.578,���k��,3.0,��
2021/09/25,17:00,0.575,0.857,0.550,1.052,0.747,0.354,0.616,0.576,��,3.5,��
2021/09/25,17:10,0.576,0.856,0.551,1.053,0.750,0.354,0.617,0.578,���k��,2.6,��
2021/09/25,17:20,0.576,0.857,0.550,1.050,0.750,0.354,0.617,0.577,��,3.0,�L
2021/09/25,17:30,0.575,0.857,0.550,1.053,0.751,0.355,0.616,0.578,���k��,3.4,�L
2021/09/25,17:40,0.578,0.855,0.552,1.047,0.747,0.354,0.616,0.578,���k��,2.9,�L
2021/09/25,17:50,0.576,0.855,0.551,1.054,0.749,0.355,0.616,0.579,��,3.4,��
2021/09/25,18:00,0.577,0.856,0.549,1.055,0.747,0.355,0.617,0.577,���k��,2.6,��
2021/09/25,18:10,0.576,0.858,0.550,1.052,0.749,0.354,0.616,0.579,���쓌,2.0,�L
2021/09/25,18:20,0.576,0.856,0.550,1.053,0.749,0.355,0.616,0.579,���쓌,4.2,��
2021/09/25,18:30,0.578,0.858,0.550,1.053,0.749,0.354,0.616,0.579,���쓌,3.4,��
2021/09/25,18:40,0.576,0.860,0.551,1.053,0.748,0.354,0.616,0.579,�쓌,2.6,��
2021/09/25,18:50,0.578,0.859,0.551,1.053,0.750,0.354,0.617,0.581,���쓌,3.0,��
2021/09/25,19:00,0.576,0.858,0.550,1.054,0.751,0.354,0.617,0.579,�쓌,1.2,��
2021/09/25,19:10,0.578,0.859,0.551,1.055,0.748,0.354,0.616,0.578,��,1.9,��
2021/09/25,19:20,0.577,0.862,0.550,1.054,0.749,0.354,0.618,0.580,��,1.2,��
2021/09/25,19:30,0.579,0.860,0.551,1.053,0.750,0.354,0.616,0.580,��,1.2,��
2021/09/25,19:40,0.578,0.860,0.551,1.053,0.749,0.355,0.617,0.580,��쐼,1.2,��
2021/09/25,19:50,0.575,0.859,0.551,1.054,0.749,0.354,0.617,0.580,��쐼,1.9,��
2021/09/25,20:00,0.578,0.858,0.550,1.055,0.749,0.355,0.617,0.580,��쐼,1.7,��
2021/09/25,20:10,0.578,0.859,0.550,1.052,0.750,0.354,0.616,0.578,��,1.5,��
2021/09/25,20:20,0.579,0.859,0.551,1.053,0.751,0.356,0.616,0.580,��쐼,1.2,��
2021/09/25,20:30,0.580,0.859,0.552,1.053,0.752,0.355,0.617,0.580,��쐼,1.2,��
2021/09/25,20:40,0.578,0.859,0.551,1.057,0.749,0.354,0.617,0.578,��쐼,2.0,��
2021/09/25,20:50,0.579,0.860,0.551,1.055,0.750,0.354,0.616,0.580,��쐼,2.0,��
2021/09/25,21:00,0.579,0.862,0.550,1.055,0.751,0.355,0.617,0.580,��,2.0,��
2021/09/25,21:10,0.579,0.857,0.550,1.054,0.750,0.355,0.616,0.579,��쐼,1.2,��
2021/09/25,21:20,0.577,0.860,0.549,1.054,0.752,0.354,0.617,0.578,��,1.7,��
2021/09/25,21:30,0.579,0.861,0.552,1.056,0.752,0.355,0.618,0.579,��쐼,1.5,��
2021/09/25,21:40,0.577,0.861,0.551,1.054,0.752,0.356,0.619,0.581,��,2.0,��
2021/09/25,21:50,0.578,0.859,0.551,1.054,0.753,0.355,0.617,0.581,��쓌,1.9,��
2021/09/25,22:00,0.582,0.860,0.552,1.054,0.753,0.356,0.617,0.581,��쓌,1.9,��
2021/09/25,22:10,0.578,0.860,0.551,1.054,0.752,0.354,0.618,0.581,���쓌,1.9,��
2021/09/25,22:20,0.580,0.862,0.551,1.054,0.751,0.355,0.618,0.580,���쓌,3.0,��
2021/09/25,22:30,0.580,0.860,0.552,1.054,0.752,0.355,0.618,0.580,���쓌,4.0,��
2021/09/25,22:40,0.580,0.858,0.552,1.055,0.750,0.355,0.617,0.579,���쓌,3.7,��
2021/09/25,22:50,0.580,0.860,0.551,1.056,0.751,0.356,0.617,0.579,���쓌,4.5,��
2021/09/25,23:00,0.580,0.859,0.552,1.054,0.750,0.356,0.616,0.580,���쓌,5.0,��
2021/09/25,23:10,0.579,0.859,0.553,1.054,0.751,0.355,0.617,0.579,���쓌,5.3,��
2021/09/25,23:20,0.577,0.862,0.550,1.055,0.752,0.355,0.616,0.579,���쓌,4.9,��
2021/09/25,23:30,0.580,0.861,0.553,1.054,0.754,0.356,0.618,0.580,���쓌,4.1,��
2021/09/25,23:40,0.579,0.860,0.552,1.054,0.750,0.355,0.617,0.579,���쓌,4.1,��
2021/09/25,23:50,0.578,0.861,0.552,1.055,0.753,0.356,0.617,0.580,���쓌,3.0,��
